Weather History for Laredo, TX

Change the Weather History Date:

Monday, October 7, 2013

  Actual Average Record
Temperature  
Mean Temperature 72 °F 78 °F  
Max Temperature 87 °F 88 °F 102 °F (1931)
Min Temperature 56 °F 68 °F 44 °F (1906)
Degree Days  
Heating Degree Days 0 0  
Month to date heating degree days 0 0  
Since 1 July heating degree days 0 1  
Cooling Degree Days 7 13  
Month to date cooling degree days 111 96  
Year to date cooling degree days 4076 3881  
Growing Degree Days 20 (Base 50)    
Moisture  
Dew Point 45 °F    
Average Humidity 44    
Maximum Humidity 83    
Minimum Humidity 18    
Precipitation  
Precipitation 0.00 in 0.08 in 3.34 in (1981)
Month to date precipitation 0.01 0.57  
Year to date precipitation 16.23 16.49  
Sea Level Pressure  
Sea Level Pressure 30.12 in    
Wind  
Wind Speed 4 mph (WSW)    
Max Wind Speed 8 mph    
Max Gust Speed 10 mph    
Visibility 10 miles    
Events      
T = Trace of Precipitation, MM = Missing Value Source: NWS Daily Summary

Daily Weather History Graph

Daily Weather History Graph

Search for Another Location

Airport:

Trip Planner

Search our weather history database for the weather conditions in past years. The results will help you decide how hot, cold, wet, or windy it might be!

Date:

Astronomy

Oct. 07, 2013 Rise Set
Actual Time 7:33 AM CDT 7:16 PM CDT
Civil Twilight 7:10 AM CDT 7:40 PM CDT
Nautical Twilight 6:43 AM CDT 8:07 PM CDT
Astronomical Twilight 6:16 AM CDT 8:34 PM CDT
Moon 10:09 AM CDT (10/7) 9:20 PM CDT (10/7)
Length of Visible Light 12h 30m
Length of Day
11h 43m
Waxing Crescent, 9% of the Moon is Illuminated
Oct 7
Waxing Crescent
Oct 11
First Quarter
Oct 18
Full
Oct 26
Last Quarter
Nov 3
New

Hourly Weather History & Observations

Time (CDT) Temp. Dew Point Humidity Pressure Visibility Wind Dir Wind Speed Gust Speed Precip Events Conditions
12:56 AM 61.9 °F 50.0 °F 65% 30.15 in 10.0 mi West 4.6 mph - N/A   Clear
1:56 AM 59.9 °F 50.0 °F 70% 30.15 in 10.0 mi WNW 5.8 mph - N/A   Clear
2:56 AM 59.9 °F 48.9 °F 67% 30.15 in 10.0 mi NW 5.8 mph - N/A   Clear
3:56 AM 59.9 °F 47.8 °F 64% 30.14 in 10.0 mi NW 5.8 mph - N/A   Clear
4:56 AM 59.0 °F 47.8 °F 66% 30.14 in 10.0 mi WNW 4.6 mph - N/A   Clear
5:56 AM 57.9 °F 47.8 °F 69% 30.14 in 10.0 mi WNW 4.6 mph - N/A   Clear
6:56 AM 57.9 °F 50.0 °F 75% 30.14 in 10.0 mi Calm Calm - N/A   Clear
7:56 AM 55.9 °F 50.0 °F 80% 30.15 in 10.0 mi Calm Calm - N/A   Clear
8:56 AM 61.9 °F 50.0 °F 65% 30.17 in 10.0 mi Calm Calm - N/A   Clear
9:56 AM 70.0 °F 50.0 °F 49% 30.17 in 10.0 mi Calm Calm - N/A   Clear
10:56 AM 74.8 °F 48.9 °F 40% 30.18 in 10.0 mi WNW 4.6 mph - N/A   Clear
11:56 AM 81.0 °F 45.9 °F 29% 30.17 in 10.0 mi WNW 5.8 mph - N/A   Clear
12:56 PM 84.9 °F 41.0 °F 21% 30.15 in 10.0 mi Calm Calm - N/A   Clear
1:56 PM 84.9 °F 38.8 °F 20% 30.12 in 10.0 mi Calm Calm - N/A   Clear
2:56 PM 86.0 °F 39.9 °F 20% 30.09 in 10.0 mi SE 5.8 mph - N/A   Clear
3:56 PM 86.9 °F 41.0 °F 20% 30.06 in 10.0 mi South 5.8 mph - N/A   Clear
4:56 PM 86.0 °F 39.9 °F 20% 30.05 in 10.0 mi Calm Calm - N/A   Clear
5:56 PM 86.0 °F 38.8 °F 19% 30.04 in 10.0 mi Calm Calm - N/A   Clear
6:56 PM 82.9 °F 43.0 °F 24% 30.05 in 10.0 mi East 6.9 mph - N/A   Clear
7:56 PM 77.0 °F 45.9 °F 33% 30.06 in 10.0 mi SSE 4.6 mph - N/A   Clear
8:56 PM 73.9 °F 43.0 °F 33% 30.07 in 10.0 mi East 5.8 mph - N/A   Clear
9:56 PM 72.9 °F 43.9 °F 35% 30.08 in 10.0 mi SE 8.1 mph - N/A   Clear
10:56 PM 70.0 °F 43.9 °F 39% 30.08 in 10.0 mi SSE 4.6 mph - N/A   Clear
11:56 PM 68.9 °F 43.9 °F 40% 30.07 in 10.0 mi South 5.8 mph - N/A   Clear